Погода в Рипосто

Италия     37°42′17″N   15°11′59″E
темп.,
°C
ветер,
м/с
пор.,
м/с
влажн.,
%
обл.,
%
осадки,
мм/ч
давл.,
гПа
погр.,
м
16 июня, ср
ср1623:00+18зюз12660 0.0 1018163
02:00+18з225996 0.0 1017126
05:00+18сз21435 0.0 101670
08:00+22всв11362 0.0 1017235
11:00+24юв324199 0.0 1017605
14:00+25юв43425 0.0 1016756
17:00+23ююв32563 0.0 1016425
20:00+20зсз11632 0.0 101718
17 июня, чт
чт1723:00+20сз335534 0.0 101744
02:00+20сз225369 0.0 101735
05:00+20зсз2251100 0.0 101635
08:00+23вюв114471 0.0 1017214
11:00+25вюв324534 0.0 1018625
14:00+25ююв435021 0.0 1018755
17:00+24ююв225729 0.0 1017487
20:00+21св1169100 0.0 101741
18 июня, пт
пт1823:00+21с22645 0.0 101844
02:00+21сз22605 0.0 101726
05:00+21зсз225822 0.0 101718
08:00+24юв114823 0.0 1018163
11:00+26вюв32466 0.0 1018562
14:00+26ююв324618 0.0 1018686
17:00+24ююв225686 0.0 1017370
20:00+23зюз115851 0.0 101711
19 июня, сб
сб1923:00+23сз225124 0.0 101718
02:00+23сз22430 0.0 101620
05:00+23зсз22360 0.0 101624
08:00+27в12332 0.0 1017165
11:00+28юв22370 0.0 1017492
14:00+28ююз22330 0.0 1016420
17:00+27ю33380 0.0 1015281
20:00+25сз11472 0.0 101514
20 июня, вс
вс2023:00+24сз22425 0.0 101525
02:00+24з22444 0.0 101420
05:00+24зсз11470 0.0 101420
08:00+27юв11410 0.0 1014158
11:00+27юв21420 0.0 1015358
14:00+28юв32420 0.0 1014429
17:00+26ююв22500 0.0 1014268
20:00+24ссв00630 0.0 101418